239ALFEROV (RS61S)

Last updated on Sun Aug 09 2026 00:03:16 GMT+0000 (Coordinated Universal Time)

1 64881U 25155F 26220.61227041 .00008686 00000+0 26373-3 0 9991 2 64881 97.4588 190.3626 0006973 10.8439 349.2952 15.34306294 88846
UTC large
Height (km)
Speed (km/s)
/
Latitude / Longitude
Inclination (degrees)
Orbital Period (minutes)
Azimuth
Elevation
Range (km)
Doppler Factor

Next 0 passes for location: London (51.5072 / 0.1276)

No passes found over London.
239ALFEROV (RS61S)